Simultaneous Nadir Overpasses (SNOs) Predictions

Prediction of SNOs between METOP-B and NOAA-19 Satellite Orbit:

Table of predicted SNOs for the next 14.0 days since TLE Epoch: 11/17/2016
Index Date (METOP-B) Time (METOP-B) Lat,Lon (METOP-B) SZA (METOP-B ) Date (NOAA-19) Time (NOAA-19) Lat,Lon (NOAA-19) SZA (NOAA-19 ) Distance(km) Time Diff (sec)
1 11/22/2016 16:17:41 76.91, -60.58 97.25 11/22/2016 16:16:33 76.91, -63.32 97.18 68.99 68
2 11/22/2016 17:08:30 -76.57, 105.45 83.11 11/22/2016 17:07:21 -76.57, 105.37 83.13 2.29 69
3 11/22/2016 17:59:10 76.53, -87.37 96.85 11/22/2016 17:58:25 76.53, -87.25 96.85 3.19 45
4 11/22/2016 18:49:51 -76.56, 80.05 83.12 11/22/2016 18:49:21 -76.53, 80.01 83.15 2.98 30
5 11/22/2016 19:40:32 76.51,-112.78 96.85 11/22/2016 19:40:27 76.54,-112.78 96.87 2.33 5
6 11/22/2016 20:31:13 -76.54, 54.64 83.12 11/22/2016 20:31:23 -76.54, 54.48 83.13 4.30 10
7 11/22/2016 21:21:54 76.50,-138.18 96.84 11/22/2016 21:22:28 76.50,-138.14 96.85 1.01 34
8 11/22/2016 22:12:36 -76.48, 29.07 83.18 11/22/2016 22:13:24 -76.50, 29.12 83.15 2.90 48
9 11/22/2016 23:03:16 76.48,-163.59 96.84 11/22/2016 23:04:29 76.46,-163.50 96.83 2.85 73




NCC Satellite Simultaneous Nadir Overpasses (SNOs) Prediction Service
